STARLINK-31275

operational
NORAD ID: 59197 Int'l Des: 2024-045 Owner: SPXS Country: US Constellation: starlink
LEOCIRCULAR

Über STARLINK-31275

Beschreibung wird geladen...

Live-Position

3D-Globus wird geladen...

Nächste Überflüge

Höhenverlauf

Altitude vs Time

uPlot chart will show altitude changes over time

Zweizeiliger Elementsatz

1 59197U 24045V 25251.42507419 -.00001513 00000-0 -45487-4 0 9997
2 59197 43.0027 42.1082 0000980 252.1257 107.9488 15.27566205 85286
Epoch: 8. Sept. 2025 • Age: 15 hours

Aktueller Status

Höhe 482.5 km
Geschwindigkeit 7.63 km/s
Subsatellitenpunkt 2.44°N, 148.75°W
Startdatum 11. März 2024
Alter 1.4 years
Typ internet

Technische Details

Klassifizierung Payload
Masse 730.00 kg
Trockenmasse 700.00 kg
Gesamtmasse 730.00 kg
Länge 0.30 m
Durchmesser 4.10 m
Spannweite 29.00 m
Form Box + pan
Hersteller SPXS
Bus-Typ Starlink V2M
Phasenstatus In Orbit
Besitzer/Staat SPXS/US

Große Konstellationen

Loading constellations...